Date String (YYYY-MM-DD hh:mm:ss) UTC,Instrument flags,Ambient pressure (hPa),Sample flow (lpm),Bypass flow (lpm),Sample temperature (°C),Ambient temperature (°C),ASC tube jacket temperature (°C),LED temperature (°C),Box temperature (°C),Sample RH (%),Span deviation,Mass concentration (μg/m³),Mass concentration (μg/m³),Mass concentration (μg/m³)
DateTimeUTC,F1_M11,P_M11,Q1_M11,Q2_M11,T1_M11,T2_M11,T3_M11,T4_M11,T5_M11,U1_M11,ZSPAN_M11,X0_M11,X2_M11,X1_M11
2022-01-01 02:00:00,,0814.7,5.00,0.00,22.2,21.6,00.0,31.2,23.8,12.6,0000.0,0024.23,0001.93,0000.21
2022-01-01 02:01:00,,0814.7,5.00,0.00,22.1,21.6,00.0,31.2,23.8,12.6,0000.0,0024.65,0001.87,0000.21
2022-01-01 02:02:00,,0814.8,4.99,0.00,22.1,21.5,00.0,31.2,23.8,12.6,0000.0,0024.22,0001.78,0000.20
2022-01-01 02:03:00,,0814.7,5.01,0.00,22.1,21.5,00.0,31.2,23.8,12.5,0000.0,0021.74,0001.69,0000.19
2022-01-01 02:04:00,,0814.9,5.00,0.00,22.1,21.5,00.0,31.2,23.7,12.5,0000.0,0020.55,0001.64,0000.18
2022-01-01 02:05:00,,0814.9,4.99,0.00,22.1,21.5,00.0,31.2,23.7,12.5,0000.0,0016.46,0001.35,0000.15
2022-01-01 02:06:00,,0815.1,5.00,0.00,22.1,21.5,00.0,31.1,23.7,12.5,0000.0,0018.94,0001.43,0000.15
2022-01-01 02:07:00,,0814.9,4.99,0.00,22.0,21.4,00.0,31.1,23.6,12.6,0000.0,0018.96,0001.39,0000.15
2022-01-01 02:08:00,,0815.1,5.00,0.00,22.0,21.4,00.0,31.1,23.6,12.8,0000.0,0019.01,0001.40,0000.17
2022-01-01 02:09:00,,0814.9,4.99,0.00,22.0,21.4,00.0,31.1,23.6,12.6,0000.0,0021.18,0001.47,0000.18
2022-01-01 02:10:00,,0815.0,5.00,0.00,22.0,22.0,00.0,31.1,23.8,12.6,0000.0,0022.76,0001.56,0000.20
2022-01-01 02:11:00,,0814.8,5.00,0.00,22.2,22.8,00.0,31.2,24.1,12.7,0000.0,0020.88,0001.60,0000.21
2022-01-01 02:12:00,,0814.8,5.01,0.00,22.4,23.2,00.0,31.2,24.3,12.5,0000.0,0021.16,0001.76,0000.23
2022-01-01 02:13:00,,0815.1,4.99,0.00,22.4,22.9,00.0,31.2,24.3,12.6,0000.0,0021.73,0001.86,0000.25
2022-01-01 02:14:00,,0814.9,4.99,0.00,22.4,22.6,00.0,31.2,24.2,12.8,0000.0,0022.03,0001.91,0000.25
2022-01-01 02:15:00,,0814.7,5.01,0.00,22.3,22.4,00.0,31.3,24.0,12.8,0000.0,0021.95,0001.92,0000.24
2022-01-01 02:16:00,,0814.9,5.01,0.00,22.3,22.2,00.0,31.3,23.9,12.9,0000.0,0021.23,0001.88,0000.24
2022-01-01 02:17:00,,0814.6,5.00,0.00,22.2,22.0,00.0,31.2,23.9,13.1,0000.0,0015.63,0001.48,0000.20
2022-01-01 02:18:00,,0815.0,4.99,0.00,22.2,21.8,00.0,31.2,23.8,13.0,0000.0,0018.17,0001.66,0000.20
2022-01-01 02:19:00,,0815.0,5.00,0.00,22.1,21.7,00.0,31.2,23.7,13.1,0000.0,0019.21,0001.78,0000.20
2022-01-01 02:20:00,,0814.7,5.01,0.00,22.1,21.5,00.0,31.2,23.6,13.1,0000.0,0017.71,0001.78,0000.20
2022-01-01 02:21:00,,0814.5,4.99,0.00,22.0,21.4,00.0,31.2,23.6,13.2,0000.0,0016.05,0001.77,0000.21
2022-01-01 02:22:00,,0814.4,5.00,0.00,22.0,21.3,00.0,31.2,23.5,13.1,0000.0,0016.54,0001.70,0000.22
2022-01-01 02:23:00,,0814.4,5.01,0.00,21.9,21.2,00.0,31.1,23.4,12.9,0000.0,0015.91,0001.64,0000.22
2022-01-01 02:24:00,,0814.4,4.99,0.00,21.9,21.2,00.0,31.1,23.4,12.8,0000.0,0016.46,0001.72,0000.23
2022-01-01 02:25:00,,0814.6,5.01,0.00,21.9,21.8,00.0,31.1,23.6,13.0,0000.0,0016.83,0001.68,0000.24
2022-01-01 02:26:00,,0814.5,5.00,0.00,22.1,22.7,00.0,31.2,23.9,12.8,0000.0,0017.46,0001.67,0000.25
2022-01-01 02:27:00,,0814.9,5.00,0.00,22.2,23.0,00.0,31.2,24.1,12.9,0000.0,0019.07,0001.69,0000.25
2022-01-01 02:28:00,,0814.5,5.00,0.00,22.3,22.7,00.0,31.2,24.0,12.7,0000.0,0019.95,0001.67,0000.25
2022-01-01 02:29:00,,0814.6,5.01,0.00,22.2,22.4,00.0,31.2,23.9,12.6,0000.0,0016.67,0001.32,0000.22
2022-01-01 02:30:00,,0814.8,5.00,0.00,22.2,22.1,00.0,31.2,23.8,12.7,0000.0,0016.63,0001.34,0000.23
2022-01-01 02:31:00,,0815.1,4.99,0.00,22.1,21.8,00.0,31.2,23.7,12.7,0000.0,0017.79,0001.40,0000.23
2022-01-01 02:32:00,,0815.1,5.00,0.00,22.1,21.7,00.0,31.2,23.6,12.4,0000.0,0017.88,0001.40,0000.22
2022-01-01 02:33:00,,0815.1,5.00,0.00,22.0,21.5,00.0,31.2,23.6,12.5,0000.0,0017.59,0001.32,0000.21
2022-01-01 02:34:00,,0815.1,5.00,0.00,22.0,21.4,00.0,31.1,23.5,12.6,0000.0,0018.12,0001.36,0000.21
2022-01-01 02:35:00,,0815.0,5.00,0.00,21.9,21.2,00.0,31.1,23.5,12.8,0000.0,0017.63,0001.25,0000.20
2022-01-01 02:36:00,,0815.1,5.01,0.00,21.9,21.1,00.0,31.1,23.4,12.6,0000.0,0017.22,0001.29,0000.20
2022-01-01 02:37:00,,0815.1,5.00,0.00,21.8,21.1,00.0,31.1,23.3,12.6,0000.0,0017.09,0001.27,0000.20
2022-01-01 02:38:00,,0815.2,5.00,0.00,21.8,21.1,00.0,31.0,23.3,12.5,0000.0,0015.97,0001.25,0000.20
2022-01-01 02:39:00,,0815.0,4.99,0.00,21.8,21.5,00.0,31.0,23.5,12.7,0000.0,0015.80,0001.25,0000.20
2022-01-01 02:40:00,,0815.0,5.01,0.00,22.0,22.3,00.0,31.1,23.8,12.6,0000.0,0015.21,0001.22,0000.20
2022-01-01 02:41:00,,0815.1,5.00,0.00,22.1,23.1,00.0,31.1,24.1,12.4,0000.0,0013.94,0000.95,0000.17
2022-01-01 02:42:00,,0815.1,5.00,0.00,22.2,23.0,00.0,31.1,24.1,12.2,0000.0,0015.19,0000.90,0000.16
2022-01-01 02:43:00,,0815.1,5.01,0.00,22.3,22.7,00.0,31.1,24.1,11.9,0000.0,0016.10,0000.88,0000.15
2022-01-01 02:44:00,,0815.1,4.99,0.00,22.2,22.5,00.0,31.2,24.0,11.9,0000.0,0016.71,0000.87,0000.15
2022-01-01 02:45:00,,0815.1,5.00,0.00,22.2,22.2,00.0,31.2,23.9,12.0,0000.0,0016.64,0000.90,0000.15
2022-01-01 02:46:00,,0815.1,5.01,0.00,22.2,22.0,00.0,31.2,23.8,11.9,0000.0,0016.47,0000.90,0000.15
2022-01-01 02:47:00,,0814.9,5.00,0.00,22.1,21.7,00.0,31.2,23.7,11.2,0000.0,0017.53,0000.95,0000.15
2022-01-01 02:48:00,,0815.1,4.99,0.00,22.1,21.6,00.0,31.2,23.6,11.2,0000.0,0018.92,0001.11,0000.17
2022-01-01 02:49:00,,0815.0,5.00,0.00,22.0,21.5,00.0,31.1,23.6,11.3,0000.0,0018.77,0001.17,0000.18
2022-01-01 02:50:00,,0815.1,4.99,0.00,22.0,21.4,00.0,31.1,23.5,11.2,0000.0,0018.66,0001.14,0000.18
2022-01-01 02:51:00,,0815.0,4.99,0.00,21.9,21.3,00.0,31.1,23.4,11.2,0000.0,0019.60,0001.17,0000.18
2022-01-01 02:52:00,,0815.0,5.00,0.00,21.9,21.1,00.0,31.1,23.3,11.1,0000.0,0018.36,0001.18,0000.18
2022-01-01 02:53:00,,0815.1,5.01,0.00,21.8,21.1,00.0,31.1,23.3,11.0,0000.0,0016.22,0001.10,0000.16
2022-01-01 02:54:00,,0815.2,5.00,0.00,21.7,21.0,00.0,31.0,23.2,11.3,0000.0,0015.75,0001.25,0000.17
2022-01-01 02:55:00,,0815.2,4.99,0.00,21.8,21.4,00.0,31.0,23.4,11.3,0000.0,0014.76,0001.35,0000.18
2022-01-01 02:56:00,,0815.2,5.00,0.00,21.9,22.2,00.0,31.0,23.7,11.3,0000.0,0013.53,0001.26,0000.17
2022-01-01 02:57:00,,0815.2,5.02,0.00,22.1,22.9,00.0,31.1,24.0,11.0,0000.0,0014.61,0001.24,0000.16
2022-01-01 02:58:00,,0815.1,4.99,0.00,22.2,22.7,00.0,31.1,24.0,10.9,0000.0,0016.01,0001.19,0000.15
2022-01-01 02:59:00,,0815.2,5.01,0.00,22.2,22.5,00.0,31.1,23.9,10.9,0000.0,0014.21,0001.05,0000.12
